Weather History for KOXR - October, 2012

Change the Weather History Date:

Thursday, October 25, 2012

  Actual Average Record
Temperature  
Mean Temperature 61 °F -  
Max Temperature 73 °F 74 °F 94 °F (1968)
Min Temperature 50 °F 52 °F 42 °F (1953)
Degree Days  
Heating Degree Days 4    
Growing Degree Days 11 (Base 50)    
Moisture  
Dew Point 46 °F    
Average Humidity 55    
Maximum Humidity 78    
Minimum Humidity 35    
Precipitation  
Precipitation 0.00 in - - ()
Sea Level Pressure  
Sea Level Pressure 30.04 in    
Wind  
Wind Speed 5 mph (NNW)    
Max Wind Speed 20 mph    
Max Gust Speed 32 mph    
Visibility 10 miles    
Events      
Averages and records for this station are not official NWS values.
T = Trace of Precipitation, MM = Missing Value Source: NWS Daily Summary

Daily Weather History Graph

Daily Weather History Graph

Search for Another Location

Airport or City:

Trip Planner

Search our weather history database for the weather conditions in past years. The results will help you decide how hot, cold, wet, or windy it might be!

Date:

Astronomy

Oct. 25, 2012 Rise Set
Actual Time 7:10 AM PDT 6:10 PM PDT
Civil Twilight 6:45 AM PDT 6:35 PM PDT
Nautical Twilight 6:15 AM PDT 7:05 PM PDT
Astronomical Twilight 5:46 AM PDT 7:34 PM PDT
Moon 3:51 PM PDT (10/25) 3:21 AM PDT (10/25)
Length of Visible Light 11h 50m
Length of Day
10h 59m
Waxing Gibbous, 85% of the Moon is Illuminated
Oct 25
Waxing Gibbous
Oct 29
Full
Nov 6
Last Quarter
Nov 13
New
Nov 20
First Quarter

Hourly Weather History & Observations

Time (PDT) Temp. Dew Point Humidity Pressure Visibility Wind Dir Wind Speed Gust Speed Precip Events Conditions
12:51 AM 55.9 °F 39.0 °F 53% 30.10 in 10.0 mi ENE 4.6 mph - N/A   Clear
1:51 AM 53.1 °F 41.0 °F 64% 30.10 in 10.0 mi WNW 5.8 mph - N/A   Clear
2:51 AM 52.0 °F 39.9 °F 63% 30.09 in 10.0 mi ENE 3.5 mph - N/A   Clear
3:51 AM 52.0 °F 37.9 °F 59% 30.08 in 10.0 mi Calm Calm - N/A   Clear
4:51 AM 51.1 °F 39.0 °F 63% 30.07 in 10.0 mi NE 5.8 mph - N/A   Clear
5:51 AM 50.0 °F 39.0 °F 66% 30.08 in 10.0 mi Calm Calm - N/A   Clear
7:51 AM 53.1 °F 39.0 °F 59% 30.09 in 10.0 mi Calm Calm - N/A   Clear
8:51 AM 63.0 °F 39.0 °F 41% 30.09 in 10.0 mi NE 5.8 mph - N/A   Clear
9:51 AM 68.0 °F 39.0 °F 35% 30.10 in 10.0 mi North 3.5 mph - N/A   Clear
10:51 AM 70.0 °F 41.0 °F 35% 30.09 in 10.0 mi Variable 4.6 mph - N/A   Clear
11:51 AM 70.0 °F 48.9 °F 47% 30.07 in 10.0 mi WNW 8.1 mph - N/A   Clear
12:51 PM 72.0 °F 48.9 °F 44% 30.04 in 10.0 mi West 10.4 mph - N/A   Clear
1:51 PM 72.0 °F 54.0 °F 53% 30.01 in 10.0 mi WNW 16.1 mph - N/A   Clear
2:51 PM 71.1 °F 55.0 °F 57% 29.98 in 10.0 mi WNW 18.4 mph 32.2 mph N/A   Clear
3:51 PM 70.0 °F 55.0 °F 59% 29.97 in 10.0 mi West 19.6 mph 24.2 mph N/A   Clear
4:51 PM 69.1 °F 55.9 °F 63% 29.96 in 10.0 mi West 15.0 mph - N/A   Clear
6:51 PM 66.0 °F 57.9 °F 75% 29.96 in 10.0 mi Calm Calm - N/A   Clear
7:51 PM 64.0 °F 57.0 °F 78% 29.97 in 10.0 mi Calm Calm - N/A   Clear
9:51 PM 64.0 °F 46.0 °F 52% 29.99 in 10.0 mi NE 5.8 mph - N/A   Clear
10:51 PM 64.0 °F 43.0 °F 46% 29.99 in 10.0 mi Calm Calm - N/A   Clear
11:51 PM 62.1 °F 43.0 °F 50% 30.00 in 10.0 mi ESE 4.6 mph - N/A   Clear